This is the latest recevied weather packets stored in our database for station/object DO3MHA-13. If no packets are shown the sender has not sent any weather packets the latest 1 day(s).
| Time | Temp. | Humidity | Pressure | Rain* | Wind** | Luminosity | Snow |
|---|---|---|---|---|---|---|---|
| 1778037251 | - | - | 998.7 hPa | 0 mm | 0.89 m/s, 225° | - | - |
| 1778037241 | - | - | 998.8 hPa | 0 mm | 0.89 m/s, 225° | - | - |
| 1778037231 | - | - | 998.7 hPa | 0 mm | 0.89 m/s, 203° | - | - |
| 1778037221 | - | - | 998.8 hPa | 0 mm | 0.89 m/s, 203° | - | - |
| 1778037191 | - | - | 998.7 hPa | 0 mm | 0.89 m/s, 180° | - | - |
| 1778037181 | - | - | 998.8 hPa | 0 mm | 0.89 m/s, 225° | - | - |
| 1778037171 | - | - | 998.8 hPa | 0 mm | 0.89 m/s, 203° | - | - |
| 1778037161 | - | - | 998.7 hPa | 0 mm | 0.89 m/s, 203° | - | - |
| 1778037141 | - | - | 998.8 hPa | 0 mm | 0.89 m/s, 225° | - | - |
| 1778037131 | - | - | 998.8 hPa | 0 mm | 0.89 m/s, 180° | - | - |
| 1778037111 | - | - | 998.8 hPa | 0 mm | 1.34 m/s, 225° | - | - |
| 1778037101 | - | - | 1000.4 hPa | 0 mm | 1.34 m/s, 180° | - | - |
| 1778037081 | - | - | 998.8 hPa | 0 mm | 1.34 m/s, 180° | - | - |
| 1778037071 | - | - | 998.8 hPa | 0 mm | 1.34 m/s, 225° | - | - |
| 1778037061 | - | - | 998.8 hPa | 0 mm | 1.79 m/s, 203° | - | - |
| 1778037051 | - | - | 998.8 hPa | 0 mm | 1.79 m/s, 225° | - | - |
| 1778037021 | - | - | 998.8 hPa | 0 mm | 1.79 m/s, 225° | - | - |
| 1778037011 | - | - | 998.8 hPa | 0 mm | 1.79 m/s, 203° | - | - |
| 1778036991 | - | - | 998.8 hPa | 0 mm | 1.79 m/s, 180° | - | - |
| 1778036981 | - | - | 998.8 hPa | 0 mm | 1.79 m/s, 225° | - | - |
| 1778036961 | - | - | 998.8 hPa | 0 mm | 1.34 m/s, 225° | - | - |
| 1778036951 | - | - | 998.8 hPa | 0 mm | 1.34 m/s, 270° | - | - |
| 1778036931 | - | - | 998.8 hPa | 0 mm | 0.89 m/s, 225° | - | - |
| 1778036897 | - | - | 998.8 hPa | 0 mm | 0.89 m/s, 225° | - | - |
| 1778036881 | - | - | 998.8 hPa | 0 mm | 0.45 m/s, 225° | - | - |
* Rain latest hour (hover to see other rain measurements)
** Current wind speed in m/s (hover to see current wind gust speed)